| time (UTC) | temp F | wind direction | speed MPH | gust MPH | rain 1hr in | rain 24hr in | rain mn in | humidity % | barometer mb |
| 20260906160703 | 72 | 77 | 5.0 | 12.0 | 0.00 | 0.00 | 0.00 | 91 | 1018.8 |
| 20260906155203 | 71 | 80 | 6.0 | 12.0 | 0.00 | 0.00 | 0.00 | 91 | 1018.7 |
| 20260906154703 | 72 | 77 | 5.0 | 8.0 | 0.00 | 0.00 | 0.00 | 91 | 1018.8 |
| 20260906154203 | 72 | 79 | 2.0 | 9.0 | 0.00 | 0.00 | 0.00 | 91 | 1018.9 |
| 20260906153703 | 72 | 78 | 3.0 | 8.0 | 0.00 | 0.00 | 0.00 | 91 | 1018.8 |
| 20260906145703 | 72 | 79 | 3.0 | 8.0 | 0.00 | 0.00 | 0.00 | 92 | 1018.7 |
| 20260906144203 | 71 | 79 | 2.0 | 5.0 | 0.00 | 0.00 | 0.00 | 93 | 1018.5 |
| 20260906142203 | 71 | 86 | 3.0 | 5.0 | 0.00 | 0.00 | 0.00 | 93 | 1018.6 |
| 20260906135704 | 71 | 82 | 3.0 | 6.0 | 0.00 | 0.00 | 0.00 | 93 | 1018.6 |
| 20260906135203 | 70 | 77 | 3.0 | 7.0 | 0.00 | 0.00 | 0.00 | 93 | 1018.6 |
| 20260906131703 | 70 | 117 | 2.0 | 6.0 | 0.00 | 0.00 | 0.00 | 94 | 1018.3 |
| 20260906130703 | 70 | 84 | 2.0 | 6.0 | 0.00 | 0.00 | 0.00 | 94 | 1018.2 |
| 20260906130203 | 70 | 78 | 4.0 | 9.0 | 0.00 | 0.00 | 0.00 | 94 | 1018.1 |
| 20260906122203 | 69 | 73 | 2.0 | 3.0 | 0.00 | 0.00 | 0.00 | 94 | 1017.6 |
| 20260906121203 | 69 | 74 | 3.0 | 5.0 | 0.00 | 0.00 | 0.00 | 94 | 1017.3 |
| 20260906120203 | 69 | 74 | 3.0 | 5.0 | 0.00 | 0.00 | 0.00 | 94 | 1017.3 |
| 20260906114703 | 69 | 85 | 1.0 | 3.0 | 0.00 | 0.00 | 0.00 | 94 | 1017.2 |
| 20260906114203 | 69 | 78 | 2.0 | 3.0 | 0.00 | 0.00 | 0.00 | 94 | 1017.2 |
| 20260906113703 | 69 | 69 | 2.0 | 3.0 | 0.00 | 0.00 | 0.00 | 94 | 1017.2 |
| 20260906113204 | 69 | 83 | 2.0 | 3.0 | 0.00 | 0.00 | 0.00 | 94 | 1017.2 |
| 20260906112703 | 69 | 80 | 1.0 | 3.0 | 0.00 | 0.00 | 0.00 | 94 | 1017.2 |
| 20260906112203 | 69 | 72 | 2.0 | 3.0 | 0.00 | 0.00 | 0.00 | 94 | 1017.2 |
| 20260906111203 | 69 | 88 | 0.0 | 0.0 | 0.00 | 0.00 | 0.00 | 94 | 1017.0 |
| 20260906110703 | 69 | 112 | 0.0 | 2.0 | 0.00 | 0.00 | 0.00 | 94 | 1016.9 |
| 20260906105203 | 69 | 76 | 3.0 | 7.0 | 0.00 | 0.00 | 0.00 | 94 | 1016.9 |
| 20260906104703 | 69 | 71 | 3.0 | 5.0 | 0.00 | 0.00 | 0.00 | 94 | 1016.9 |
| 20260906104203 | 69 | 72 | 3.0 | 5.0 | 0.00 | 0.00 | 0.00 | 94 | 1016.9 |
| 20260906103704 | 69 | 72 | 4.0 | 7.0 | 0.00 | 0.00 | 0.00 | 94 | 1017.0 |
| 20260906103204 | 69 | 76 | 5.0 | 7.0 | 0.00 | 0.00 | 0.00 | 94 | 1017.0 |
| 20260906102703 | 69 | 70 | 3.0 | 5.0 | 0.00 | 0.00 | 0.00 | 93 | 1017.1 |
| 20260906101703 | 69 | 64 | 4.0 | 5.0 | 0.00 | 0.00 | 0.00 | 94 | 1017.0 |
| 20260906101203 | 69 | 71 | 3.0 | 3.0 | 0.00 | 0.00 | 0.00 | 93 | 1017.0 |
| 20260906100203 | 69 | 64 | 3.0 | 5.0 | 0.00 | 0.00 | 0.00 | 93 | 1017.0 |
| 20260906095703 | 69 | 64 | 3.0 | 3.0 | 0.00 | 0.00 | 0.00 | 93 | 1017.2 |
| 20260906092203 | 68 | 57 | 2.0 | 2.0 | 0.00 | 0.00 | 0.00 | 93 | 1016.8 |
| 20260906091703 | 68 | 57 | 2.0 | 2.0 | 0.00 | 0.00 | 0.00 | 92 | 1016.8 |
| 20260906090703 | 69 | 57 | 2.0 | 3.0 | 0.00 | 0.00 | 0.00 | 92 | 1016.7 |
| 20260906090203 | 69 | 62 | 2.0 | 3.0 | 0.00 | 0.00 | 0.00 | 93 | 1016.7 |
| 20260906084703 | 69 | 67 | 0.0 | 0.0 | 0.00 | 0.00 | 0.00 | 92 | 1016.3 |
| 20260906083704 | 69 | 67 | 1.0 | 1.0 | 0.00 | 0.00 | 0.00 | 92 | 1016.2 |
| 20260906083203 | 70 | 67 | 1.0 | 3.0 | 0.00 | 0.00 | 0.00 | 92 | 1016.3 |
| 20260906082203 | 70 | 64 | 3.0 | 3.0 | 0.00 | 0.00 | 0.00 | 91 | 1016.2 |
| 20260906081204 | 70 | 69 | 2.0 | 3.0 | 0.00 | 0.00 | 0.00 | 91 | 1016.2 |
| 20260906075704 | 71 | 103 | 1.0 | 2.0 | 0.00 | 0.00 | 0.00 | 91 | 1016.2 |
| 20260906075203 | 71 | 78 | 1.0 | 3.0 | 0.00 | 0.00 | 0.00 | 91 | 1016.2 |
| 20260906074703 | 71 | 75 | 2.0 | 3.0 | 0.00 | 0.00 | 0.00 | 91 | 1016.1 |
| 20260906074204 | 71 | 75 | 2.0 | 3.0 | 0.00 | 0.00 | 0.00 | 91 | 1016.0 |
| 20260906073703 | 71 | 71 | 3.0 | 5.0 | 0.00 | 0.00 | 0.00 | 91 | 1016.1 |
| 20260906072203 | 71 | 72 | 2.0 | 3.0 | 0.00 | 0.00 | 0.00 | 90 | 1016.2 |
| 20260906071703 | 71 | 74 | 2.0 | 5.0 | 0.00 | 0.00 | 0.00 | 90 | 1016.2 |
| 20260906071203 | 71 | 69 | 3.0 | 5.0 | 0.00 | 0.00 | 0.00 | 90 | 1016.2 |
| 20260906065703 | 72 | 72 | 2.0 | 3.0 | 0.00 | 0.00 | 0.00 | 90 | 1016.3 |
| 20260906063204 | 72 | 73 | 2.0 | 5.0 | 0.00 | 0.00 | 0.00 | 90 | 1016.4 |
| 20260906062203 | 72 | 92 | 3.0 | 8.0 | 0.00 | 0.00 | 0.00 | 90 | 1016.3 |
| 20260906061203 | 72 | 74 | 5.0 | 9.0 | 0.00 | 0.00 | 0.00 | 91 | 1016.2 |
| 20260906060703 | 72 | 73 | 5.0 | 7.0 | 0.00 | 0.00 | 0.00 | 91 | 1016.2 |
| 20260906055204 | 72 | 74 | 5.0 | 8.0 | 0.00 | 0.00 | 0.00 | 92 | 1016.3 |
| 20260906053204 | 73 | 75 | 5.0 | 8.0 | 0.00 | 0.00 | 0.00 | 92 | 1016.2 |
| 20260906052203 | 73 | 69 | 4.0 | 5.0 | 0.00 | 0.00 | 0.00 | 92 | 1016.3 |
| 20260906051704 | 73 | 72 | 3.0 | 5.0 | 0.00 | 0.00 | 0.00 | 92 | 1016.3 |
| 20260906051203 | 73 | 69 | 3.0 | 5.0 | 0.00 | 0.00 | 0.00 | 92 | 1016.3 |
| 20260906045204 | 73 | 72 | 5.0 | 8.0 | 0.00 | 0.00 | 0.00 | 91 | 1016.3 |
| 20260906043203 | 74 | 75 | 5.0 | 8.0 | 0.00 | 0.00 | 0.00 | 91 | 1016.1 |
| 20260906042203 | 74 | 69 | 5.0 | 7.0 | 0.00 | 0.00 | 0.00 | 90 | 1016.2 |
| 20260906041703 | 74 | 65 | 5.0 | 6.0 | 0.00 | 0.00 | 0.00 | 90 | 1016.1 |
| 20260906041203 | 74 | 69 | 5.0 | 5.0 | 0.00 | 0.00 | 0.00 | 90 | 1016.1 |
| 20260906040203 | 75 | 69 | 3.0 | 5.0 | 0.00 | 0.00 | 0.00 | 89 | 1015.8 |
| 20260906033203 | 76 | 69 | 2.0 | 6.0 | 0.00 | 0.00 | 0.00 | 90 | 1015.8 |
| 20260906032704 | 76 | 71 | 3.0 | 5.0 | 0.00 | 0.00 | 0.00 | 90 | 1015.7 |
| 20260906032203 | 76 | 83 | 2.0 | 5.0 | 0.00 | 0.00 | 0.00 | 90 | 1015.7 |
| 20260906030704 | 76 | 76 | 5.0 | 8.0 | 0.00 | 0.00 | 0.00 | 90 | 1015.5 |
| 20260906030203 | 76 | 68 | 5.0 | 8.0 | 0.00 | 0.00 | 0.00 | 90 | 1015.6 |
| 20260906024703 | 77 | 62 | 6.0 | 10.0 | 0.00 | 0.00 | 0.00 | 89 | 1015.6 |
| 20260906023704 | 78 | 65 | 6.0 | 10.0 | 0.00 | 0.00 | 0.00 | 89 | 1015.4 |
| 20260906023203 | 78 | 67 | 7.0 | 9.0 | 0.00 | 0.00 | 0.00 | 89 | 1015.4 |
| 20260906021703 | 78 | 61 | 6.0 | 9.0 | 0.00 | 0.00 | 0.00 | 88 | 1015.3 |
| 20260906015703 | 79 | 57 | 3.0 | 6.0 | 0.00 | 0.00 | 0.00 | 88 | 1014.8 |
| 20260906014703 | 80 | 55 | 5.0 | 8.0 | 0.00 | 0.00 | 0.00 | 87 | 1014.5 |
| 20260906013204 | 81 | 58 | 5.0 | 9.0 | 0.00 | 0.00 | 0.00 | 86 | 1014.2 |
| 20260906010703 | 81 | 41 | 2.0 | 3.0 | 0.00 | 0.00 | 0.00 | 86 | 1014.4 |
| 20260906004703 | 82 | 53 | 3.0 | 5.0 | 0.00 | 0.00 | 0.00 | 85 | 1014.1 |
| 20260906001203 | 85 | 69 | 2.0 | 5.0 | 0.00 | 0.00 | 0.00 | 79 | 1013.8 |
| 20260906000704 | 85 | 72 | 3.0 | 3.0 | 0.00 | 0.00 | 0.00 | 78 | 1013.8 |
| 20260905235703 | 86 | 55 | 3.0 | 5.0 | 0.00 | 0.00 | 0.00 | 76 | 1013.8 |
| 20260905234703 | 87 | 79 | 5.0 | 10.0 | 0.00 | 0.00 | 0.00 | 75 | 1013.7 |
| 20260905233203 | 87 | 59 | 5.0 | 8.0 | 0.00 | 0.00 | 0.00 | 75 | 1013.8 |
| 20260905232203 | 87 | 65 | 5.0 | 9.0 | 0.00 | 0.00 | 0.00 | 75 | 1013.9 |
| 20260905230704 | 87 | 64 | 6.0 | 9.0 | 0.00 | 0.00 | 0.00 | 73 | 1013.9 |
| 20260905230204 | 88 | 57 | 5.0 | 8.0 | 0.00 | 0.00 | 0.00 | 73 | 1013.9 |
| 20260905225704 | 88 | 56 | 5.0 | 6.0 | 0.00 | 0.00 | 0.00 | 73 | 1013.9 |
| 20260905225203 | 88 | 61 | 4.0 | 8.0 | 0.00 | 0.00 | 0.00 | 72 | 1013.9 |
| 20260905224203 | 88 | 80 | 6.0 | 12.0 | 0.00 | 0.00 | 0.00 | 72 | 1013.6 |
| 20260905222703 | 89 | 79 | 6.0 | 12.0 | 0.00 | 0.00 | 0.00 | 70 | 1013.3 |
| 20260905220203 | 89 | 77 | 8.0 | 12.0 | 0.00 | 0.00 | 0.00 | 70 | 1013.3 |
| 20260905215203 | 89 | 73 | 7.0 | 12.0 | 0.00 | 0.00 | 0.00 | 69 | 1013.3 |
| 20260905212203 | 88 | 73 | 7.0 | 12.0 | 0.00 | 0.00 | 0.00 | 71 | 1013.4 |
| 20260905211703 | 88 | 57 | 9.0 | 13.0 | 0.00 | 0.00 | 0.00 | 70 | 1013.4 |
| 20260905211204 | 89 | 66 | 7.0 | 12.0 | 0.00 | 0.00 | 0.00 | 69 | 1013.4 |
| 20260905210203 | 89 | 79 | 9.0 | 14.0 | 0.00 | 0.00 | 0.00 | 69 | 1013.5 |
| 20260905205703 | 89 | 60 | 8.0 | 12.0 | 0.00 | 0.00 | 0.00 | 70 | 1013.7 |
| 20260905205203 | 89 | 38 | 5.0 | 12.0 | 0.00 | 0.00 | 0.00 | 73 | 1013.6 |
| 20260905204703 | 89 | 51 | 9.0 | 13.0 | 0.00 | 0.00 | 0.00 | 71 | 1013.6 |
| 20260905203704 | 89 | 57 | 8.0 | 12.0 | 0.00 | 0.00 | 0.00 | 70 | 1013.7 |
| 20260905203203 | 89 | 55 | 6.0 | 10.0 | 0.00 | 0.00 | 0.00 | 72 | 1013.8 |
| 20260905202204 | 89 | 55 | 9.0 | 13.0 | 0.00 | 0.00 | 0.00 | 71 | 1013.9 |
| 20260905201703 | 89 | 72 | 9.0 | 14.0 | 0.00 | 0.00 | 0.00 | 72 | 1014.0 |
| 20260905201204 | 89 | 74 | 9.0 | 12.0 | 0.00 | 0.00 | 0.00 | 71 | 1014.1 |
| 20260905195704 | 89 | 47 | 6.0 | 12.0 | 0.00 | 0.00 | 0.00 | 75 | 1014.3 |
| 20260905195203 | 88 | 43 | 6.0 | 10.0 | 0.00 | 0.00 | 0.00 | 75 | 1014.5 |
| 20260905193204 | 87 | 59 | 5.0 | 10.0 | 0.00 | 0.00 | 0.00 | 76 | 1014.6 |
| 20260905192204 | 87 | 74 | 8.0 | 10.0 | 0.00 | 0.00 | 0.00 | 77 | 1014.6 |
| 20260905191704 | 87 | 50 | 8.0 | 12.0 | 0.00 | 0.00 | 0.00 | 79 | 1014.7 |
| 20260905185703 | 85 | 47 | 6.0 | 9.0 | 0.00 | 0.00 | 0.00 | 81 | 1015.0 |
| 20260905185203 | 85 | 38 | 4.0 | 9.0 | 0.00 | 0.00 | 0.00 | 81 | 1015.1 |
| 20260905184703 | 85 | 45 | 5.0 | 9.0 | 0.00 | 0.00 | 0.00 | 81 | 1015.2 |
| 20260905183703 | 85 | 37 | 6.0 | 9.0 | 0.00 | 0.00 | 0.00 | 80 | 1015.3 |
| 20260905183203 | 85 | 56 | 5.0 | 7.0 | 0.00 | 0.00 | 0.00 | 80 | 1015.3 |
| 20260905182703 | 85 | 44 | 3.0 | 6.0 | 0.00 | 0.00 | 0.00 | 80 | 1015.3 |
| 20260905182203 | 85 | 28 | 3.0 | 5.0 | 0.00 | 0.00 | 0.00 | 81 | 1015.3 |
| 20260905181703 | 85 | 42 | 5.0 | 10.0 | 0.00 | 0.00 | 0.00 | 80 | 1015.3 |
| 20260905180704 | 85 | 50 | 5.0 | 8.0 | 0.00 | 0.00 | 0.00 | 80 | 1015.3 |
| 20260905175704 | 85 | 41 | 5.0 | 7.0 | 0.00 | 0.00 | 0.00 | 80 | 1015.5 |
| 20260905175204 | 85 | 38 | 3.0 | 5.0 | 0.00 | 0.00 | 0.00 | 81 | 1015.4 |
| 20260905173703 | 85 | 30 | 5.0 | 7.0 | 0.00 | 0.00 | 0.00 | 80 | 1015.1 |
| 20260905173203 | 85 | 38 | 5.0 | 8.0 | 0.00 | 0.00 | 0.00 | 80 | 1015.1 |
| 20260905171704 | 85 | 54 | 6.0 | 9.0 | 0.00 | 0.00 | 0.00 | 80 | 1015.2 |
| 20260905171204 | 85 | 48 | 5.0 | 8.0 | 0.00 | 0.00 | 0.00 | 80 | 1015.2 |
| 20260905170203 | 85 | 71 | 6.0 | 9.0 | 0.00 | 0.00 | 0.00 | 79 | 1015.3 |
| 20260905165204 | 84 | 56 | 4.0 | 6.0 | 0.00 | 0.00 | 0.00 | 82 | 1015.2 |
| 20260905164704 | 84 | 39 | 3.0 | 5.0 | 0.00 | 0.00 | 0.00 | 82 | 1015.3 |